Santa Maria, CA

8:05 AM PDT on July 28, 2017 (GMT -0700)
Santa Maria Public Airport / Captain G. Allan Hancock Field

Weather History for KSMX - November, 2013

Change the Weather History Date:

Thursday, November 21, 2013

  Actual Average Record
Temperature  
Mean Temperature 57 °F 55 °F  
Max Temperature 63 °F 67 °F 87 °F (1917)
Min Temperature 51 °F 42 °F 25 °F (1931)
Degree Days  
Heating Degree Days 8 10  
Month to date heating degree days 118 178  
Since 1 July heating degree days 329 542  
Cooling Degree Days 0 0  
Month to date cooling degree days 3 0  
Year to date cooling degree days 211 100  
Growing Degree Days 7 (Base 50)    
Moisture  
Dew Point 52 °F    
Average Humidity 80    
Maximum Humidity 93    
Minimum Humidity 67    
Precipitation  
Precipitation T in 0.05 in 0.88 in (1996)
Month to date precipitation 0.05 0.89  
Year to date precipitation 2.73 11.39  
Since 1 July precipitation 0.24  
Sea Level Pressure  
Sea Level Pressure 29.88 in    
Wind  
Wind Speed 8 mph (WNW)    
Max Wind Speed 18 mph    
Max Gust Speed 22 mph    
Visibility 7 miles    
Events Fog , Rain    
T = Trace of Precipitation, MM = Missing Value Source: NWS Daily Summary

Daily Weather History Graph

Daily Weather History Graph

Search for Another Location

Airport or City:

Trip Planner

Search our weather history database for the weather conditions in past years. The results will help you decide how hot, cold, wet, or windy it might be!

Date:

Astronomy

Nov. 21, 2013 Rise Set
Actual Time 6:42 AM PST 4:53 PM PST
Civil Twilight 6:15 AM PST 5:20 PM PST
Nautical Twilight 5:44 AM PST 5:51 PM PST
Astronomical Twilight 5:13 AM PST 6:21 PM PST
Moon 8:33 PM PST (11/21) 9:52 AM PST (11/21)
Length of Visible Light 11h 05m
Length of Day
10h 10m
Waning Gibbous, 84% of the Moon is Illuminated
Nov 21
Waning Gibbous
Nov 25
Last Quarter
Dec 2
New
Dec 9
First Quarter
Dec 17
Full

Hourly Weather History & Observations

Time (PST) Temp. Dew Point Humidity Pressure Visibility Wind Dir Wind Speed Gust Speed Precip Events Conditions
12:17 AM 59.0 °F 55.4 °F 88% 29.89 in 0.8 mi NW 8.1 mph - N/A   Overcast
12:51 AM 57.9 °F 55.9 °F 93% 29.88 in 0.5 mi WNW 5.8 mph - N/A Fog Fog
1:01 AM 57.2 °F 55.4 °F 94% 29.88 in 0.2 mi WNW 4.6 mph - N/A Fog Fog
1:15 AM 57.2 °F 55.4 °F 94% 29.88 in 0.5 mi NW 6.9 mph - N/A Fog Fog
1:51 AM 57.9 °F 55.9 °F 93% 29.88 in 1.0 mi NW 8.1 mph - N/A   Mist
2:04 AM 57.2 °F 55.4 °F 94% 29.88 in 0.2 mi WNW 8.1 mph - N/A Fog Fog
2:42 AM 57.2 °F 55.4 °F 94% 29.87 in 1.0 mi NW 8.1 mph - N/A   Mist
2:45 AM 57.2 °F 55.4 °F 94% 29.87 in 2.5 mi NW 8.1 mph - N/A   Overcast
2:51 AM 57.9 °F 55.9 °F 93% 29.88 in 6.0 mi WNW 9.2 mph - N/A   Overcast
2:56 AM 57.2 °F 55.4 °F 94% 29.87 in 1.8 mi WNW 10.4 mph - N/A   Overcast
3:13 AM 57.2 °F 55.4 °F 94% 29.87 in 1.2 mi WNW 11.5 mph - N/A   Overcast
3:16 AM 57.2 °F 55.4 °F 94% 29.87 in 2.0 mi WNW 11.5 mph - N/A   Overcast
3:23 AM 57.2 °F 53.6 °F 88% 29.88 in 10.0 mi WNW 10.4 mph - N/A   Overcast
3:51 AM 55.9 °F 54.0 °F 93% 29.88 in 9.0 mi WNW 10.4 mph - N/A   Overcast
4:51 AM 55.0 °F 53.1 °F 93% 29.88 in 8.0 mi WNW 12.7 mph - N/A   Overcast
5:51 AM 55.0 °F 52.0 °F 89% 29.90 in 7.0 mi WNW 10.4 mph - N/A   Overcast
6:01 AM 55.4 °F 51.8 °F 88% 29.89 in 10.0 mi WNW 9.2 mph - N/A   Overcast
6:51 AM 55.0 °F 52.0 °F 89% 29.91 in 10.0 mi WNW 10.4 mph - N/A   Overcast
7:51 AM 55.9 °F 52.0 °F 87% 29.92 in 10.0 mi WNW 9.2 mph - N/A   Overcast
8:51 AM 57.0 °F 52.0 °F 83% 29.92 in 7.0 mi WNW 10.4 mph - N/A   Overcast
9:03 AM 57.2 °F 53.6 °F 88% 29.91 in 10.0 mi WNW 9.2 mph - 0.00 in Rain Light Rain
9:47 AM 57.2 °F 53.6 °F 88% 29.91 in 10.0 mi WNW 12.7 mph - 0.00 in   Overcast
9:51 AM 57.0 °F 53.1 °F 87% 29.92 in 6.0 mi NW 11.5 mph - 0.00 in   Overcast
10:15 AM 57.2 °F 53.6 °F 88% 29.91 in 2.5 mi NW 10.4 mph - 0.00 in Rain Light Rain
10:39 AM 59.0 °F 53.6 °F 82% 29.90 in 6.0 mi NW 8.1 mph - 0.00 in   Overcast
10:42 AM 59.0 °F 53.6 °F 82% 29.90 in 6.0 mi WNW 9.2 mph - 0.00 in   Overcast
10:51 AM 57.9 °F 53.1 °F 84% 29.91 in 6.0 mi West 9.2 mph - 0.00 in   Overcast
11:25 AM 59.0 °F 53.6 °F 82% 29.88 in 10.0 mi WNW 11.5 mph - N/A   Overcast
11:51 AM 60.1 °F 52.0 °F 75% 29.88 in 10.0 mi West 12.7 mph - N/A   Overcast
12:46 PM 62.6 °F 51.8 °F 68% 29.86 in 10.0 mi WNW 15.0 mph - N/A   Overcast
12:51 PM 62.1 °F 52.0 °F 70% 29.86 in 10.0 mi WNW 13.8 mph - N/A   Overcast
1:22 PM 60.8 °F 51.8 °F 72% 29.84 in 10.0 mi WNW 16.1 mph - N/A   Overcast
1:34 PM 60.8 °F 50.0 °F 68% 29.84 in 10.0 mi WNW 16.1 mph - N/A   Mostly Cloudy
1:51 PM 60.1 °F 51.1 °F 72% 29.85 in 10.0 mi WNW 17.3 mph - N/A   Mostly Cloudy
2:51 PM 59.0 °F 50.0 °F 72% 29.84 in 10.0 mi WNW 15.0 mph - N/A   Overcast
3:51 PM 57.0 °F 50.0 °F 77% 29.85 in 10.0 mi WNW 12.7 mph - N/A   Mostly Cloudy
4:51 PM 55.9 °F 51.1 °F 84% 29.86 in 9.0 mi WNW 6.9 mph - N/A   Mostly Cloudy
4:58 PM 55.4 °F 51.8 °F 88% 29.86 in 9.0 mi WNW 6.9 mph - N/A   Overcast
5:37 PM 55.4 °F 50.0 °F 82% 29.86 in 10.0 mi WNW 5.8 mph - N/A   Scattered Clouds
5:51 PM 55.0 °F 51.1 °F 86% 29.87 in 10.0 mi West 5.8 mph - N/A   Mostly Cloudy
6:10 PM 53.6 °F 50.0 °F 88% 29.86 in 10.0 mi West 6.9 mph - N/A   Overcast
6:21 PM 53.6 °F 50.0 °F 88% 29.86 in 10.0 mi West 8.1 mph - N/A   Overcast
6:30 PM 53.6 °F 51.8 °F 94% 29.87 in 10.0 mi West 6.9 mph - N/A   Overcast
6:51 PM 54.0 °F 51.1 °F 90% 29.87 in 9.0 mi West 8.1 mph - N/A   Overcast
7:51 PM 52.0 °F 48.9 °F 89% 29.88 in 7.0 mi Calm Calm - N/A   Partly Cloudy
8:51 PM 53.1 °F 50.0 °F 89% 29.89 in 8.0 mi South 3.5 mph - N/A   Overcast
9:51 PM 51.1 °F 48.9 °F 92% 29.91 in 2.5 mi Calm Calm - N/A   Overcast
9:58 PM 51.8 °F 48.2 °F 88% 29.90 in 6.0 mi Calm Calm - N/A   Overcast
10:51 PM 52.0 °F 48.9 °F 89% 29.91 in 9.0 mi Calm Calm - N/A   Overcast
11:51 PM 52.0 °F 48.9 °F 89% 29.90 in 7.0 mi Calm Calm - N/A   Mostly Cloudy